Fort Nelson, British Columbia

9:00 PM PDT on August 20, 2017 (GMT -0700)
Fort Nelson

Weather History for CYYE - August, 2013

Change the Weather History Date:

Friday, August 30, 2013

  Actual Average Record
Temperature  
Mean Temperature 52 °F -  
Max Temperature 60 °F 59 °F 80 °F (2003)
Min Temperature 43 °F 37 °F 33 °F (2010)
Degree Days  
Heating Degree Days 14    
Growing Degree Days 2 (Base 50)    
Moisture  
Dew Point 50 °F    
Average Humidity 95    
Maximum Humidity 100    
Minimum Humidity 82    
Precipitation  
Precipitation 0.00 in 0.06 in - ()
Sea Level Pressure  
Sea Level Pressure 29.96 in    
Wind  
Wind Speed 1 mph ()    
Max Wind Speed 6 mph    
Max Gust Speed -    
Visibility 6.6 miles    
Events Fog , Rain    
Averages and records for this station are not official NWS values.
T = Trace of Precipitation, MM = Missing Value Source: Averaged Metar Reports

Daily Weather History Graph

Daily Weather History Graph

Search for Another Location

Airport or City:

Trip Planner

Search our weather history database for the weather conditions in past years. The results will help you decide how hot, cold, wet, or windy it might be!

Date:

Astronomy

Aug. 30, 2013 Rise Set
Actual Time 6:04 AM PDT 8:15 PM PDT
Civil Twilight 5:21 AM PDT 8:58 PM PDT
Nautical Twilight 4:24 AM PDT 9:54 PM PDT
Astronomical Twilight 3:12 AM PDT 11:04 PM PDT
Moon 12:02 AM PDT (8/30) 5:17 PM PDT (8/30)
Length of Visible Light 15h 37m
Length of Day
14h 10m
Waning Crescent, 28% of the Moon is Illuminated
Aug 30
Waning Crescent
Sep 5
New
Sep 12
First Quarter
Sep 19
Full
Sep 26
Last Quarter

Hourly Weather History & Observations

Time (PDT) Temp. Windchill Dew Point Humidity Pressure Visibility Wind Dir Wind Speed Gust Speed Precip Events Conditions
12:00 AM 42.8 °F 41.1 °F 42.8 °F 100% 29.96 in 15.0 mi North 3.5 mph - N/A   Partly Cloudy
1:00 AM 44.6 °F - 44.6 °F 100% 29.95 in 15.0 mi Calm Calm - N/A   Scattered Clouds
2:00 AM 46.4 °F - 46.4 °F 100% 29.95 in 15.0 mi Calm Calm - N/A   Overcast
3:00 AM 46.4 °F - 46.4 °F 100% 29.94 in 3.0 mi Variable 2.3 mph - N/A   Overcast
3:10 AM 46.4 °F - 46.4 °F 100% 29.94 in 0.5 mi Calm Calm - N/A Fog Fog
3:35 AM 46.4 °F - 46.4 °F 100% 29.94 in 0.5 mi Calm Calm - N/A Fog Light Drizzle
4:00 AM 46.4 °F - 46.4 °F 100% 29.94 in 0.5 mi North 2.3 mph - N/A Fog Light Drizzle
5:00 AM 48 °F - 47 °F 97% 29.95 in 0 mi WSW 1.2 mph - - Rain Light Drizzle
5:00 AM 48.2 °F - 48.2 °F 100% 29.95 in 0.5 mi Calm Calm - N/A Fog Light Drizzle
5:36 AM 48.2 °F - 46.4 °F 93% 29.95 in 0.2 mi Calm Calm - N/A Fog Light Drizzle
6:00 AM 48.2 °F - 48.2 °F 100% 29.95 in 0.2 mi Calm Calm - N/A Fog Light Drizzle
7:00 AM 48.2 °F - 48.2 °F 100% 29.94 in 0.2 mi Calm Calm - N/A Fog Light Drizzle
8:00 AM 48.2 °F - 48.2 °F 100% 29.96 in 0.2 mi South 3.5 mph - N/A Fog Light Drizzle
8:29 AM 48.2 °F - 48.2 °F 100% 29.96 in 0.5 mi SSW 2.3 mph - N/A Fog Light Drizzle
9:00 AM 50.0 °F - 48.2 °F 94% 29.97 in 0.5 mi SSE 2.3 mph - N/A Fog Light Drizzle
9:36 AM 50.0 °F - 50.0 °F 100% 29.97 in 1.0 mi Calm Calm - N/A   Light Drizzle
10:00 AM 50.0 °F - 50.0 °F 100% 29.97 in 1.5 mi SSE 3.5 mph - N/A   Overcast
10:21 AM 51.8 °F - 50.0 °F 94% 29.97 in 3.0 mi Variable 2.3 mph - N/A   Overcast
11:00 AM 51 °F - 51 °F 98% 29.98 in 3 mi ESE 3.5 mph - -   Mist
11:00 AM 51.8 °F - 50.0 °F 94% 29.98 in 3.0 mi ESE 3.5 mph - N/A   Overcast
12:00 PM 51.8 °F - 50.0 °F 94% 29.98 in 3.0 mi SE 2.3 mph - N/A   Overcast
1:00 PM 53.6 °F - 51.8 °F 94% 29.98 in 3.0 mi Variable 2.3 mph - N/A   Overcast
2:00 PM 53.6 °F - 51.8 °F 94% 29.98 in 5.0 mi SSE 5.8 mph - N/A   Overcast
2:27 PM 55.4 °F - 53.6 °F 94% 29.98 in 5.0 mi South 3.5 mph - N/A   Overcast
3:00 PM 55.4 °F - 53.6 °F 94% 29.97 in 5.0 mi Calm Calm - N/A   Overcast
4:00 PM 57.2 °F - 53.6 °F 88% 29.96 in 10.0 mi Calm Calm - N/A   Overcast
5:00 PM 58 °F - 54 °F 83% 29.96 in 15 mi North 2.3 mph - -   Mostly Cloudy
5:00 PM 59.0 °F - 53.6 °F 82% 29.96 in 15.0 mi Calm Calm - N/A   Mostly Cloudy
6:00 PM 59.0 °F - 55.4 °F 88% 29.95 in 30.0 mi NE 2.3 mph - N/A   Mostly Cloudy
7:00 PM 60.8 °F - 55.4 °F 82% 29.94 in 20.0 mi Calm Calm - N/A   Scattered Clouds
8:00 PM 57.2 °F - 55.4 °F 94% 29.95 in 20.0 mi Calm Calm - N/A   Scattered Clouds
9:00 PM 53.6 °F - 51.8 °F 94% 29.95 in 15.0 mi West 3.5 mph - N/A   Scattered Clouds
10:00 PM 51.8 °F - 50.0 °F 94% 29.96 in 15.0 mi Calm Calm - N/A   Partly Cloudy
11:00 PM 49 °F - 49 °F 98% 29.96 in 15 mi NNW 1.2 mph - -   Clear
11:00 PM 50.0 °F - 48.2 °F 94% 29.96 in 15.0 mi NNW 2.3 mph - N/A   Partly Cloudy